FW0267 Weather Reports


time (UTC)temp
C
wind
direction
speed
KPH
gust
KPH
rain 1hr
cm
rain 24hr
cm
rain mn
cm
humidity
%
barometer
mb
20260905212007 -17 135 0.0 3.2 0.00 2.08 1.55 1011.2
20260905211507 -17 142 1.6 3.2 0.00 2.08 1.55 1011.1
20260905211007 -17 136 0.0 1.6 0.00 2.08 1.55 1011.3
20260905210509 -17 88 0.0 1.6 0.00 2.08 1.55 1011.3
20260905210006 -17 109 0.0 3.2 0.00 2.08 1.55 1011.4
20260905205505 -17 109 0.0 3.2 0.00 2.08 1.55 1011.4
20260905205006 -17 121 1.6 3.2 0.00 2.08 1.55 1011.4
20260905204508 -17 107 1.6 3.2 0.00 2.08 1.55 1011.4
20260905204005 -17 84 0.0 1.6 0.00 2.08 1.55 1011.3
20260905203505 -17 101 0.0 3.2 0.00 2.08 1.55 1011.2
20260905203005 -17 101 0.0 3.2 0.00 2.08 1.55 1011.3
20260905202508 -17 122 1.6 3.2 0.00 2.08 1.55 1011.3
20260905202005 -17 123 1.6 3.2 0.00 2.08 1.55 1011.3
20260905201508 -17 115 0.0 1.6 0.00 2.08 1.55 1011.4
20260905201006 -17 125 0.0 1.6 0.03 2.08 1.55 1011.4
20260905200506 -17 125 0.0 3.2 0.05 2.08 1.55 1011.4
20260905200005 -17 96 0.0 3.2 0.05 2.08 1.55 1011.2
20260905195504 -17 5 0.0 3.2 0.05 2.08 1.55 1011.4
20260905195006 -17 90 0.0 1.6 0.08 2.08 1.55 1011.5
20260905194504 -17 103 0.0 1.6 0.08 2.08 1.55 1011.5
20260905194003 -17 103 0.0 1.6 0.08 2.08 1.55 1011.5
20260905193503 -17 103 0.0 3.2 0.13 2.08 1.55 1011.7
20260905193007 -17 96 0.0 3.2 0.13 2.08 1.55 1011.4
20260905192503 -17 123 0.0 3.2 0.13 2.08 1.55 1011.4
20260905192004 -17 126 1.6 3.2 0.13 2.08 1.55 1011.3
20260905191504 -17 132 0.0 0.0 0.13 2.08 1.55 1011.8
20260905191004 -17 132 0.0 3.2 0.10 2.06 1.52 1012.0
20260905190502 -17 132 0.0 3.2 0.08 2.03 1.50 1012.1
20260905190004 -17 21 0.0 3.2 0.08 2.03 1.50 1012.4
20260905185502 -17 126 1.6 3.2 0.05 2.01 1.45 1012.3
20260905185001 -17 360 0.0 0.0 0.05 2.01 1.45 1012.7
20260905184505 -17 360 0.0 3.2 0.05 2.01 1.45 1012.1
20260905184001 -17 360 1.6 3.2 0.03 1.98 1.42 1012.2
20260905183601 -17 11 0.0 3.2 0.00 1.96 1.42 1011.9
20260905183002 -17 350 0.0 3.2 0.00 1.96 1.42 1011.9
20260905182502 -17 108 0.0 4.8 0.00 1.96 1.42 1011.9
20260905182101 -17 123 0.0 4.8 0.00 1.96 1.42 1012.0
20260905181601 -17 116 0.0 3.2 0.00 1.96 1.42 1012.0
20260905181058 -17 23 0.0 4.8 0.00 1.96 1.42 1012.1
20260905180556 -17 81 0.0 4.8 0.00 1.96 1.42 1012.0
20260905180055 -17 349 0.0 4.8 0.03 1.96 1.42 1012.3
20260905175553 -17 134 0.0 0.0 0.08 1.96 1.42 1012.4
20260905175052 -17 130 0.0 3.2 0.13 1.96 1.42 1012.5
20260905174550 -17 131 0.0 3.2 0.15 1.96 1.42 1012.7
20260905174048 -17 82 0.0 1.6 0.23 1.96 1.42 1012.8
20260905173550 -17 100 0.0 3.2 0.43 1.96 1.42 1013.0
20260905173046 -17 111 0.0 1.6 0.61 1.96 1.42 1012.8
20260905172544 -17 5 0.0 3.2 0.79 1.96 1.42 1012.6
20260905172043 -17 5 0.0 3.2 1.09 1.96 1.42 1012.6
20260905171543 -17 110 0.0 3.2 1.40 1.96 1.42 1012.7
20260905171039 -17 107 0.0 4.8 1.42 1.96 1.42 1012.7
20260905170538 -17 78 0.0 4.8 1.42 1.96 1.42 1013.0
20260905170038 -17 94 0.0 1.6 1.40 1.93 1.40 1013.2
20260905165536 -17 94 0.0 3.2 1.35 1.88 1.35 1013.7
20260905165033 -17 92 0.0 3.2 1.30 1.83 1.30 1014.0
20260905164533 -17 12 0.0 3.2 1.27 1.80 1.27 1013.9
20260905164030 -17 22 0.0 3.2 1.17 1.70 1.17 1014.0
20260905163529 -17 46 0.0 1.6 0.97 1.50 0.97 1014.0
20260905163028 -17 65 0.0 3.2 0.81 1.35 0.81 1013.8
20260905162530 -17 65 0.0 3.2 0.58 1.12 0.58 1014.1
20260905162025 -17 117 0.0 3.2 0.30 0.84 0.30 1014.1
20260905161524 -17 123 1.6 3.2 0.00 0.53 0.00 1014.3
20260905161026 -17 349 0.0 4.8 0.00 0.53 0.00 1013.6
20260905160520 -17 60 0.0 4.8 0.00 0.53 0.00 1013.1
20260905160026 -17 355 0.0 3.2 0.00 0.53 0.00 1013.0
20260905155517 -17 355 0.0 4.8 0.00 0.53 0.00 1012.8
20260905155016 -17 142 1.6 4.8 0.00 0.53 0.00 1012.4
20260905154514 -17 120 0.0 4.8 0.00 0.53 0.00 1012.4
20260905154013 -17 19 1.6 4.8 0.00 0.53 0.00 1012.5
20260905153513 -17 355 1.6 8.0 0.00 0.53 0.00 1012.5
20260905153010 -17 317 3.2 8.0 0.00 0.53 0.00 1012.5
20260905152509 -17 18 0.0 4.8 0.00 0.53 0.00 1012.6
20260905152010 -17 82 0.0 4.8 0.00 0.53 0.00 1012.7
20260905151506 -17 117 1.6 4.8 0.00 0.53 0.00 1012.7
20260905151006 -17 317 1.6 6.4 0.00 0.53 0.00 1012.7
20260905150504 -17 86 1.6 6.4 0.00 0.53 0.00 1012.7
20260905150002 -17 336 1.6 4.8 0.00 0.53 0.00 1012.8
20260905145601 -17 342 1.6 4.8 0.00 0.53 0.00 1012.7
20260905145058 -17 136 1.6 6.4 0.00 0.53 0.00 1012.7
20260905144557 -17 69 1.6 9.7 0.00 0.53 0.00 1012.7
20260905144056 -17 94 1.6 9.7 0.00 0.53 0.00 1012.6
20260905143554 -17 126 1.6 6.4 0.00 0.53 0.00 1012.7
20260905143053 -17 360 0.0 3.2 0.00 0.53 0.00 1012.7
20260905142553 -17 104 0.0 3.2 0.00 0.53 0.00 1012.7
20260905142053 -17 104 0.0 4.8 0.00 0.53 0.00 1012.7
20260905141551 -17 132 0.0 4.8 0.00 0.53 0.00 1012.7
20260905141052 -17 85 0.0 4.8 0.00 0.53 0.00 1012.6
20260905140547 -17 320 0.0 6.4 0.00 0.53 0.00 1012.4
20260905140048 -17 327 0.0 6.4 0.00 0.53 0.00 1012.4
20260905135545 -17 327 1.6 6.4 0.00 0.53 0.00 1012.3
20260905135042 -17 116 0.0 4.8 0.00 0.53 0.00 1012.2
20260905134542 -17 148 0.0 4.8 0.00 0.53 0.00 1012.2
20260905134040 -17 82 0.0 4.8 0.00 0.53 0.00 1012.2
20260905133538 -17 316 1.6 4.8 0.00 0.53 0.00 1012.2
20260905133044 -17 316 0.0 6.4 0.00 0.53 0.00 1012.1
20260905132536 -17 108 0.0 3.2 0.00 0.53 0.00 1012.3
20260905132035 -17 128 0.0 3.2 0.00 0.53 0.00 1012.3
20260905131535 -17 125 0.0 3.2 0.00 0.53 0.00 1012.3
20260905131031 -17 92 0.0 3.2 0.00 0.53 0.00 1012.1
20260905130529 -17 111 0.0 3.2 0.00 0.53 0.00 1012.0
20260905130031 -17 111 0.0 0.0 0.00 0.53 0.00 1011.9
20260905125527 -17 111 0.0 0.0 0.00 0.53 0.00 1011.9
20260905125026 -17 111 0.0 0.0 0.00 0.53 0.00 1012.0
20260905124525 -17 111 0.0 3.2 0.00 0.53 0.00 1012.1
20260905124026 -17 111 0.0 3.2 0.00 0.53 0.00 1012.3
20260905123521 -17 121 0.0 1.6 0.00 0.53 0.00 1012.2
20260905123019 -17 111 0.0 1.6 0.00 0.53 0.00 1012.3
20260905122518 -17 111 0.0 0.0 0.00 0.53 0.00 1012.4
20260905122016 -17 111 0.0 0.0 0.00 0.53 0.00 1012.3
20260905121515 -17 111 0.0 0.0 0.00 0.53 0.00 1012.3
20260905121014 -17 111 0.0 3.2 0.00 0.53 0.00 1012.4
20260905120513 -17 109 0.0 3.2 0.00 0.53 0.00 1012.3
20260905120015 -17 121 0.0 3.2 0.00 0.53 0.00 1012.1
20260905115512 -17 107 0.0 0.0 0.00 0.53 0.00 1012.2
20260905115008 -17 107 0.0 0.0 0.00 0.53 0.00 1012.2
20260905114506 -17 107 0.0 0.0 0.00 0.53 0.00 1012.2
20260905114005 -17 107 0.0 0.0 0.00 0.53 0.00 1012.0
20260905113504 -17 107 0.0 1.6 0.00 0.53 0.00 1012.0
20260905113002 -17 107 0.0 1.6 0.00 0.53 0.00 1012.0
20260905112500 -17 78 0.0 3.2 0.00 0.53 0.00 1011.9
20260905112059 -17 118 0.0 3.2 0.00 0.53 0.00 1011.9
20260905111644 -17 116 0.0 0.0 0.00 0.53 0.00 1012.0
20260905111057 -17 116 0.0 0.0 0.00 0.53 0.00 1012.1
20260905110557 -17 116 0.0 1.6 0.00 0.53 0.00 1011.9
20260905110054 -17 116 0.0 1.6 0.00 0.53 0.00 1012.0
20260905105552 -17 105 0.0 1.6 0.00 0.53 0.00 1011.9
20260905105053 -17 103 0.0 1.6 0.00 0.53 0.00 1011.9
20260905104552 -17 106 0.0 0.0 0.00 0.53 0.00 1011.8
20260905104051 -17 106 0.0 0.0 0.00 0.53 0.00 1011.7
20260905103546 -17 106 0.0 0.0 0.00 0.53 0.00 1011.6
20260905103045 -17 106 0.0 0.0 0.00 0.53 0.00 1011.7
20260905102543 -17 106 0.0 1.6 0.00 0.53 0.00 1011.6
20260905102041 -17 106 0.0 1.6 0.00 0.53 0.00 1011.5
20260905101549 -17 105 0.0 1.6 0.00 0.53 0.00 1011.4
20260905101039 -17 92 0.0 1.6 0.00 0.53 0.00 1011.4
20260905100537 -17 100 0.0 0.0 0.00 0.53 0.00 1011.5
20260905100043 -17 100 0.0 0.0 0.00 0.53 0.00 1011.4
20260905095534 -17 100 0.0 0.0 0.00 0.53 0.00 1011.4
20260905095032 -17 100 0.0 0.0 0.00 0.53 0.00 1011.4
20260905094531 -17 100 0.0 1.6 0.00 0.53 0.00 1011.3
20260905094029 -17 100 0.0 1.6 0.00 0.53 0.00 1011.2
20260905093528 -17 117 0.0 1.6 0.00 0.53 0.00 1011.3
20260905093027 -17 88 0.0 1.6 0.00 0.53 0.00 1011.3
20260905092525 -17 122 0.0 0.0 0.00 0.53 0.00 1011.2
20260905092025 -17 122 0.0 0.0 0.00 0.53 0.00 1011.1
20260905091526 -17 122 0.0 0.0 0.00 0.53 0.00 1011.3
20260905091022 -17 122 0.0 0.0 0.00 0.53 0.00 1011.2
20260905090520 -17 122 0.0 1.6 0.00 0.53 0.00 1011.2
20260905090020 -17 122 0.0 3.2 0.00 0.53 0.00 1011.2
20260905085516 -17 115 0.0 3.2 0.00 0.53 0.00 1011.3
20260905085016 -17 126 1.6 3.2 0.00 0.53 0.00 1011.2
20260905084513 -17 98 0.0 0.0 0.00 0.53 0.00 1011.2
20260905084012 -17 97 0.0 0.0 0.00 0.53 0.00 1011.4
20260905083511 -17 97 0.0 0.0 0.00 0.53 0.00 1011.3
20260905083010 -17 97 0.0 0.0 0.00 0.53 0.00 1011.3
20260905082509 -17 97 0.0 1.6 0.00 0.53 0.00 1011.4
20260905082008 -17 106 0.0 1.6 0.00 0.53 0.00 1011.4
20260905081505 -17 122 0.0 1.6 0.00 0.53 0.00 1011.4
20260905081006 -17 111 0.0 1.6 0.00 0.53 0.00 1011.4
20260905080502 -17 115 0.0 0.0 0.00 0.53 0.00 1011.5
20260905080002 -17 115 0.0 0.0 0.00 0.53 0.00 1011.5
20260905075703 -17 115 0.0 0.0 0.00 0.53 0.00 1011.5
20260905075057 -17 115 0.0 1.6 0.00 0.53 0.00 1011.5
20260905074557 -17 108 0.0 3.2 0.00 0.53 0.00 1011.6
20260905074056 -17 107 0.0 3.2 0.00 0.53 0.00 1011.7
20260905073553 -17 121 0.0 0.0 0.00 0.53 0.00 1011.7
20260905073055 -17 121 0.0 0.0 0.00 0.53 0.00 1011.7
20260905072551 -17 121 0.0 0.0 0.00 0.53 0.00 1011.7
20260905072050 -17 121 0.0 1.6 0.00 0.53 0.00 1011.7
20260905071548 -17 121 0.0 3.2 0.00 0.53 0.00 1011.7
20260905071047 -17 122 0.0 3.2 0.00 0.53 0.00 1011.8
20260905070549 -17 15 0.0 1.6 0.00 0.53 0.00 1011.9
20260905070044 -17 114 0.0 1.6 0.00 0.53 0.00 1012.0
20260905065543 -17 111 0.0 0.0 0.00 0.53 0.00 1012.0
20260905065041 -17 111 0.0 1.6 0.00 0.53 0.00 1012.1
20260905064539 -17 111 0.0 1.6 0.00 0.53 0.00 1012.0
20260905064040 -17 111 0.0 1.6 0.00 0.53 0.00 1012.0
20260905063538 -17 103 0.0 3.2 0.00 0.53 0.00 1012.1
20260905063037 -17 98 0.0 3.2 0.00 0.53 0.00 1012.0
20260905062539 -17 86 0.0 0.0 0.00 0.53 0.00 1012.1
20260905062033 -17 86 0.0 0.0 0.00 0.53 0.00 1012.2
20260905061534 -17 86 0.0 0.0 0.00 0.53 0.00 1012.3
20260905061031 -17 86 0.0 1.6 0.00 0.53 0.00 1012.3
20260905060530 -17 86 0.0 1.6 0.00 0.53 0.00 1012.5
20260905060029 -17 97 0.0 1.6 0.00 0.53 0.00 1012.6
20260905055527 -17 117 0.0 1.6 0.00 0.53 0.00 1012.7
20260905055025 -17 112 0.0 0.0 0.00 0.53 0.00 1012.8
20260905054524 -17 112 0.0 0.0 0.00 0.53 0.00 1012.8
20260905054022 -17 112 0.0 3.2 0.00 0.53 0.00 1012.9
20260905053521 -17 112 0.0 3.2 0.00 0.53 0.00 1013.0
20260905053019 -17 125 0.0 3.2 0.00 0.53 0.00 1013.0
20260905052522 -17 112 0.0 1.6 0.00 0.53 0.00 1013.2
20260905052019 -17 78 0.0 0.0 0.00 0.53 0.00 1013.3
20260905051516 -17 76 0.0 0.0 0.00 0.53 0.00 1013.4
20260905051013 -17 76 0.0 1.6 0.00 0.53 0.00 1013.4
20260905050514 -17 76 0.0 1.6 0.00 0.53 0.00 1013.4
20260905050015 -17 104 0.0 1.6 0.00 0.53 0.00 1013.5
20260905045611 -17 76 0.0 1.6 0.00 0.53 0.00 1013.7
20260905045007 -17 86 0.0 1.6 0.00 0.53 0.00 1013.7
20260905044506 -17 85 0.0 0.0 0.00 0.53 0.00 1013.8
20260905044007 -17 85 0.0 1.6 0.00 0.53 0.00 1013.8
20260905043505 -17 84 0.0 1.6 0.00 0.53 0.00 1013.6
20260905043002 -17 64 0.0 1.6 0.00 0.53 0.00 1013.8
20260905042600 -17 76 0.0 1.6 0.00 0.53 0.00 1013.8
20260905042159 -17 26 0.0 1.6 0.00 0.53 0.00 1014.0
20260905041600 -17 121 0.0 1.6 0.00 0.53 0.00 1013.9
20260905041057 -17 121 0.0 1.6 0.00 0.53 0.00 1014.0
20260905040554 -17 121 0.0 1.6 0.00 0.53 0.00 1014.0
20260905035555 -17 74 0.0 1.6 0.00 0.53 0.53 1014.0
20260905035052 -17 56 0.0 1.6 0.00 0.53 0.53 1014.0
20260905034602 -17 102 0.0 0.0 0.00 0.53 0.53 1014.0
20260905034046 -17 102 0.0 1.6 0.00 0.53 0.53 1014.2
20260905033544 -17 93 0.0 3.2 0.00 0.53 0.53 1014.2
20260905033109 -17 113 0.0 3.2 0.00 0.53 0.53 1014.1
20260905032542 -17 127 0.0 3.2 0.00 0.53 0.53 1014.0
20260905032044 -17 122 0.0 1.6 0.00 0.53 0.53 1014.0
20260905031551 -17 134 0.0 3.2 0.00 0.53 0.53 1013.9
20260905031037 -17 134 0.0 3.2 0.00 0.53 0.53 1013.9
20260905030536 -17 159 0.0 3.2 0.00 0.53 0.53 1013.9
20260905030050 -17 107 0.0 3.2 0.00 0.53 0.53 1013.9
20260905025535 -17 119 0.0 3.2 0.00 0.53 0.53 1013.9
20260905025031 -17 133 0.0 3.2 0.00 0.53 0.53 1013.9
20260905024530 -17 134 0.0 3.2 0.00 0.53 0.53 1014.0
20260905024028 -17 145 1.6 3.2 0.00 0.53 0.53 1014.2
20260905023527 -17 126 0.0 3.2 0.00 0.53 0.53 1014.3
20260905023026 -17 78 0.0 3.2 0.00 0.53 0.53 1014.2
20260905022524 -17 125 1.6 3.2 0.00 0.53 0.53 1014.3
20260905022026 -17 138 0.0 1.6 0.00 0.53 0.53 1014.2
20260905021521 -17 138 0.0 4.8 0.00 0.53 0.53 1014.3
20260905021020 -17 148 1.6 4.8 0.00 0.53 0.53 1014.2
20260905020520 -17 128 1.6 3.2 0.00 0.53 0.53 1014.3
20260905020019 -17 114 1.6 3.2 0.00 0.53 0.53 1014.3
20260905015515 -17 130 0.0 3.2 0.00 0.53 0.53 1014.3
20260905015013 -17 128 0.0 4.8 0.00 0.53 0.53 1014.4
20260905014511 -17 128 0.0 4.8 0.00 0.53 0.53 1014.3
20260905014010 -17 142 1.6 3.2 0.00 0.53 0.53 1014.3
20260905013509 -17 132 0.0 3.2 0.00 0.53 0.53 1014.3
20260905013014 -17 113 0.0 3.2 0.00 0.53 0.53 1014.4
20260905012506 -17 131 0.0 1.6 0.00 0.53 0.53 1014.3
20260905012007 -17 123 0.0 1.6 0.00 0.53 0.53 1014.0
20260905011504 -17 123 0.0 3.2 0.00 0.53 0.53 1013.9
20260905011005 -17 104 0.0 3.2 0.00 0.53 0.53 1013.6
20260905010602 -17 112 0.0 3.2 0.00 0.53 0.53 1013.5
20260905010109 -17 136 0.0 3.2 0.00 0.53 0.53 1013.3
20260905005557 -17 100 0.0 3.2 0.00 0.53 0.53 1013.4
20260905005059 -17 33 0.0 4.8 0.00 0.53 0.53 1013.2
20260905004558 -17 130 0.0 4.8 0.00 0.53 0.53 1013.1
20260905004053 -17 118 1.6 3.2 0.00 0.53 0.53 1013.4
20260905003553 -17 114 0.0 1.6 0.03 0.53 0.53 1013.3
20260905003051 -17 98 0.0 1.6 0.03 0.53 0.53 1013.1
20260905002549 -17 15 0.0 3.2 0.03 0.53 0.53 1012.8
20260905002047 -17 88 0.0 3.2 0.03 0.53 0.53 1012.6
20260905001554 -17 98 0.0 3.2 0.03 0.53 0.53 1012.4
20260905001044 -17 107 0.0 3.2 0.03 0.53 0.53 1012.1
20260905000542 -17 73 0.0 3.2 0.10 0.53 0.53 1012.5
20260905000041 -17 98 0.0 3.2 0.18 0.53 0.53 1012.2
20260904235541 -17 97 0.0 3.2 0.18 0.53 0.53 1012.0
20260904235038 -17 132 0.0 1.6 0.18 0.53 0.53 1012.0
20260904234536 -17 110 0.0 3.2 0.18 0.53 0.53 1011.9
20260904234039 -17 116 0.0 4.8 0.18 0.53 0.53 1012.1
20260904233536 -17 139 0.0 4.8 0.15 0.51 0.51 1012.7
20260904233043 -17 135 1.6 4.8 0.15 0.51 0.51 1013.1
20260904232536 -17 159 0.0 3.2 0.15 0.51 0.51 1013.9
20260904232037 -17 119 0.0 3.2 0.15 0.51 0.51 1014.6
20260904231540 -17 133 0.0 3.2 0.15 0.51 0.51 1015.1
20260904231036 -17 180 0.0 3.2 0.20 0.51 0.51 1015.1
20260904230535 -17 127 0.0 3.2 0.41 0.41 0.41 1014.7
20260904230100 -17 140 1.6 4.8 0.36 0.36 0.36 1014.4
20260904225536 -17 148 0.0 4.8 0.36 0.36 0.36 1014.4
20260904225034 -17 128 0.0 4.8 0.36 0.36 0.36 1014.7
20260904224535 -17 131 1.6 4.8 0.36 0.36 0.36 1014.5
20260904224034 -17 148 0.0 3.2 0.36 0.36 0.36 1014.9
20260904223534 -17 120 0.0 3.2 0.36 0.36 0.36 1014.9
20260904223035 -17 148 0.0 4.8 0.36 0.36 0.36 1014.5
20260904222533 -17 130 1.6 4.8 0.36 0.36 0.36 1014.1
20260904222033 -17 95 0.0 4.8 0.36 0.36 0.36 1014.0
20260904221531 -17 19 1.6 14.5 0.36 0.36 0.36 1013.7
20260904221030 -17 92 3.2 14.5 0.30 0.30 0.30 1013.9
20260904220528 -17 48 3.2 8.0 0.00 0.00 0.00 1014.7
20260904220028 -17 340 1.6 14.5 0.00 0.00 0.00 1015.3
20260904215526 -17 102 1.6 9.7 0.00 0.00 0.00 1014.2
20260904215025 -17 71 3.2 14.5 0.00 0.00 0.00 1013.5
20260904214524 -17 50 1.6 12.9 0.00 0.00 0.00 1013.4
20260904214024 -17 328 3.2 12.9 0.00 0.00 0.00 1013.1
20260904213525 -17 104 4.8 9.7 0.00 0.00 0.00 1013.0
20260904213028 -17 342 1.6 8.0 0.00 0.00 0.00 1013.0
20260904212521 -17 13 0.0 3.2 0.00 0.00 0.00 1012.4